This is the latest recevied weather packets stored in our database for station/object WA0LM. If no packets are shown the sender has not sent any weather packets the latest 10 day(s).
| Time | Temp. | Humidity | Pressure | Rain* | Wind** | Luminosity | Snow |
|---|---|---|---|---|---|---|---|
| 1777822437 | 13.89° C | 47% | 1006.8 hPa | 0 mm | - | 614 W/m² | - |
| 1777822134 | 13.89° C | 49% | 1006.8 hPa | 0 mm | - | 603 W/m² | - |
| 1777821831 | 13.89° C | 50% | 1006.8 hPa | 0 mm | - | 592 W/m² | - |
| 1777821528 | 13.33° C | 55% | 1006.8 hPa | 0 mm | - | 578 W/m² | - |
| 1777821226 | 13.33° C | 53% | 1006.9 hPa | 0 mm | - | 565 W/m² | - |
| 1777820923 | 13.33° C | 58% | 1006.8 hPa | 0 mm | - | 552 W/m² | - |
| 1777820619 | 13.33° C | 53% | 1006.9 hPa | 0 mm | - | 540 W/m² | - |
| 1777820316 | 13.33° C | 57% | 1006.7 hPa | 0 mm | - | 529 W/m² | - |
| 1777820014 | 12.78° C | 59% | 1006.8 hPa | 0 mm | - | 515 W/m² | - |
| 1777819710 | 12.78° C | 58% | 1007 hPa | 0 mm | - | 502 W/m² | - |
| 1777819409 | 12.78° C | 58% | 1006.7 hPa | 0 mm | - | 489 W/m² | - |
| 1777819106 | 12.78° C | 59% | 1006.8 hPa | 0 mm | - | 475 W/m² | - |
| 1777818802 | 12.78° C | 56% | 1006.9 hPa | 0 mm | - | 461 W/m² | - |
| 1777818498 | 12.78° C | 58% | 1006.8 hPa | 0 mm | - | 447 W/m² | - |
| 1777818196 | 12.78° C | 58% | 1006.7 hPa | 0 mm | - | 381 W/m² | - |
| 1777817892 | 12.78° C | 57% | 1006.8 hPa | 0 mm | - | 399 W/m² | - |
| 1777817589 | 12.78° C | 57% | 1006.6 hPa | 0 mm | - | 286 W/m² | - |
| 1777817286 | 12.22° C | 61% | 1006.7 hPa | 0 mm | - | 256 W/m² | - |
| 1777816983 | 12.22° C | 63% | 1006.6 hPa | 0 mm | - | 231 W/m² | - |
| 1777816679 | 12.22° C | 60% | 1006.5 hPa | 0 mm | - | 363 W/m² | - |
| 1777816376 | 11.67° C | 63% | 1006.5 hPa | 0 mm | - | 302 W/m² | - |
| 1777816074 | 11.67° C | 61% | 1006.6 hPa | 0 mm | - | 333 W/m² | - |
| 1777815772 | 11.67° C | 61% | 1006.3 hPa | 0 mm | - | 316 W/m² | - |
| 1777815469 | 11.67° C | 61% | 1006.2 hPa | 0 mm | - | 302 W/m² | - |
| 1777815166 | 11.67° C | 62% | 1006.3 hPa | 0 mm | - | 288 W/m² | - |
* Rain latest hour (hover to see other rain measurements)
** Current wind speed in m/s (hover to see current wind gust speed)